Regional Weather Roundup
Issued by NWS

Home | Current Version | Previous Version | Graphics & Text | Print | Product List | Glossary On
Versions: 1 2 3 4 5 6 7 8 9 10 11 12 13 14 15 16 17 18 19 20 21 22 23 24 25 26 27 28 29 30 31 32 33 34 35 36 37 38 39 40 41 42 43 44 45 46 47 48 49 50
000
ASUS43 KLMK 060002
RWRKY
KENTUCKY REGIONAL WEATHER ROUNDUP
NATIONAL WEATHER SERVICE LOUISVILLE KY
800 PM EDT SUN JUL 05 2015

NOTE "FAIR" INDICATES FEW OR NO CLOUDS BELOW 12,000 FEET
WITH NO SIGNIFICANT WEATHER AND/OR OBSTRUCTIONS TO VISIBILITY.

KYZ001>023-026-027-061>063-070>075-060100-
WESTERN AND SOUTH CENTRAL KENTUCKY

CITY           SKY/WX    TMP DP  RH WIND       PRES   REMARKS
PADUCAH        SUNNY     81  68  64 S3        30.01S HAZE
HENDERSON      CLOUDY    82  68  61 CALM      30.01R
OWENSBORO      MOSUNNY   82  70  67 S5        30.03R
HOPKINSVILLE   SUNNY     81  64  54 W5        30.03S
BOWLING GREEN  MOSUNNY   81  70  69 NE6       30.04S
GLASGOW        NOT AVBL
$$

KYZ024-025-028>034-038-045-046-053-060100-
NORTH CENTRAL KENTUCKY

CITY           SKY/WX    TMP DP  RH WIND       PRES   REMARKS
LOUISVILLE/SDF MOSUNNY   80  61  52 E5        30.04S
LOUISVILLE/LOU MOSUNNY   79  63  57 NE6       30.05F
FORT KNOX      NOT AVBL
$$

KYZ035>037-039>044-047>052-055>060-089>105-060100-
NORTHEAST KENTUCKY

CITY           SKY/WX    TMP DP  RH WIND       PRES   REMARKS
LEXINGTON      MOSUNNY   75  66  73 NE7       30.07R
COVINGTON      PTSUNNY   76  61  59 N7        30.06F
FRANKFORT      MOSUNNY   76  64  66 N5        30.06R
$$

KYZ054-064>069-076>088-106>120-060100-
SOUTHEAST KENTUCKY

CITY           SKY/WX    TMP DP  RH WIND       PRES   REMARKS
JACKSON        CLOUDY    70  66  87 NW5       30.07S
LONDON         MOCLDY    74  64  71 NW6       30.08R
SOMERSET       NOT AVBL
MIDDLESBORO    NOT AVBL
MONTICELLO     MOCLDY    72  72 100 CALM      30.10S
$$




USA.gov is the U.S. government's official web portal to all federal, state and local government web resources and services.